TimeEST,TemperatureF,Dew PointF,Humidity,Sea Level PressureIn,VisibilityMPH,Wind Direction,Wind SpeedMPH,Gust SpeedMPH,PrecipitationIn,Events,Conditions,WindDirDegrees,DateUTC
12:54 AM,26.1,19.9,78,30.32,10.0,NNE,5.8,-,N/A,,Clear,20,2013-03-09 05:54:00
1:54 AM,25.0,19.0,78,30.31,10.0,NNE,5.8,-,N/A,,Clear,30,2013-03-09 06:54:00
2:54 AM,21.9,18.0,85,30.31,10.0,North,10.4,-,N/A,,Clear,10,2013-03-09 07:54:00
3:54 AM,24.1,19.9,84,30.32,10.0,North,9.2,-,N/A,,Mostly Cloudy,10,2013-03-09 08:54:00
4:54 AM,26.1,21.0,81,30.33,10.0,NNE,6.9,-,N/A,,Overcast,20,2013-03-09 09:54:00
5:54 AM,26.1,21.0,81,30.35,10.0,NNE,5.8,-,N/A,,Overcast,20,2013-03-09 10:54:00
7:54 AM,28.0,21.0,75,30.38,10.0,NE,4.6,-,N/A,,Overcast,50,2013-03-09 12:54:00
8:54 AM,28.9,21.0,72,30.38,10.0,NNE,8.1,-,N/A,,Overcast,30,2013-03-09 13:54:00
9:54 AM,30.0,19.9,66,30.38,10.0,NNE,5.8,-,N/A,,Overcast,20,2013-03-09 14:54:00
10:54 AM,33.1,21.0,61,30.38,10.0,NE,4.6,-,N/A,,Partly Cloudy,50,2013-03-09 15:54:00
11:54 AM,33.1,21.0,61,30.36,10.0,East,4.6,-,N/A,,Clear,80,2013-03-09 16:54:00
12:54 PM,36.0,21.0,55,30.35,10.0,East,5.8,-,N/A,,Clear,80,2013-03-09 17:54:00
1:54 PM,37.9,21.0,51,30.34,10.0,ENE,5.8,-,N/A,,Clear,60,2013-03-09 18:54:00
2:54 PM,39.9,21.9,49,30.34,10.0,Calm,Calm,-,N/A,,Clear,0,2013-03-09 19:54:00
3:54 PM,39.9,21.9,49,30.34,10.0,Calm,Calm,-,N/A,,Clear,0,2013-03-09 20:54:00
4:54 PM,39.9,19.9,45,30.35,10.0,Calm,Calm,-,N/A,,Clear,0,2013-03-09 21:54:00
5:54 PM,37.0,19.9,50,30.35,10.0,NNE,3.5,-,N/A,,Clear,30,2013-03-09 22:54:00
6:54 PM,34.0,21.0,59,30.38,10.0,ENE,4.6,-,N/A,,Clear,70,2013-03-09 23:54:00
7:54 PM,30.9,21.9,69,30.39,10.0,East,6.9,-,N/A,,Clear,100,2013-03-10 00:54:00
8:54 PM,28.9,21.9,75,30.40,10.0,East,3.5,-,N/A,,Clear,90,2013-03-10 01:54:00
9:54 PM,27.0,21.0,78,30.39,10.0,East,3.5,-,N/A,,Clear,90,2013-03-10 02:54:00
10:54 PM,25.0,21.0,85,30.41,10.0,NNE,3.5,-,N/A,,Clear,20,2013-03-10 03:54:00
11:54 PM,25.0,19.9,81,30.42,10.0,NE,3.5,-,N/A,,Clear,50,2013-03-10 04:54:00